Location: Roc des P�zouls
(43.9667°N, 3.5500°E)
Time: 13:50:32
(UTC+00:00)

Cosmos 2100 Rocket - Pass Details

Date: 14 November 2019
Orbit: 955 x 1001 km, 82.9° (Epoch: 07 December)

Event Time Altitude Azimuth Distance (km) Brightness Sun altitude
Rises 05:05:09 0° 187° (S) 3,659 7.0 -16.9°
Reaches altitude 10° 05:07:39 10° 188° (S) 2,709 6.4 -16.5°
Maximum altitude 05:13:52 87° 278° (W) 973 3.9 -15.4°
Drops below altitude 10° 05:20:04 10° 7° (N) 2,702 6.3 -14.3°
Sets 05:22:34 0° 8° (N) 3,649 7.0 -13.8°
